Location: Poprad
(49.0500°N, 20.3000°E)
Time: 03:54:00
(UTC+01:00)

BlueWalker 3 - Visible Passes

Search period start: 29 November 2023 00:00
Search period end: 09 December 2023 00:00
Orbit: 489 x 504 km, 53.2° (Epoch: 28 November)

Date Brightness Start Highest point End Pass type
(mag) Time Alt. Az. Time Alt. Az. Time Alt. Az.
29 Nov 2.9 04:32:45 43° NE 04:32:45 43° NE 04:35:48 10° E visible
29 Nov 2.1 06:07:19 14° WNW 06:10:34 62° SSW 06:14:19 10° SE visible
30 Nov 3.9 04:11:09 28° ENE 04:11:09 28° ENE 04:13:13 10° E visible
30 Nov 2.0 05:45:43 23° WNW 05:47:59 63° SSW 05:51:45 10° SE visible
01 Dec 4.7 03:49:34 17° E 03:49:34 17° E 03:50:37 10° E visible
01 Dec 2.0 05:24:08 38° W 05:25:23 63° SSW 05:29:10 10° SE visible
02 Dec 1.9 05:02:35 62° SW 05:02:47 64° SSW 05:06:34 10° SE visible
03 Dec 2.7 04:41:04 46° SSE 04:41:04 46° SSE 04:43:56 10° SE visible
03 Dec 4.1 06:15:57 10° W 06:17:55 14° SW 06:19:52 10° SSW visible
04 Dec 3.9 04:19:36 25° SE 04:19:36 25° SE 04:21:18 10° SE visible
04 Dec 4.0 05:54:10 13° WSW 05:55:17 14° SW 05:57:16 10° SSW visible
05 Dec 4.8 03:58:10 13° SE 03:58:10 13° SE 03:58:38 10° SE visible
05 Dec 4.0 05:32:45 14° SW 05:32:45 14° SW 05:34:39 10° SSW visible
06 Dec 4.3 05:11:23 12° SSW 05:11:23 12° SSW 05:12:02 10° SSW visible
